Location: Jackson Park
(37.2862°N, 79.9123°W)
Time: 20:46:42
(UTC+00:00)

Vanguard 3 - Pass Details

Date: 10 May 2026
Orbit: 507 x 3205 km, 33.4° (Epoch: 31 May)

Event Time Altitude Azimuth Distance (km) Brightness Sun altitude
Rises 16:40:56 0° 191° (SSW) 6,400 12.0 69.0°
Reaches altitude 10° 16:46:33 10° 178° (S) 5,724 11.9 69.4°
Maximum altitude 16:58:51 22° 135° (SE) 5,118 11.8 70.1°
Drops below altitude 10° 17:11:30 10° 94° (E) 5,967 11.7 70.4°
Sets 17:17:22 0° 81° (E) 6,741 11.8 70.5°
